Location: Anuling
(14.1239°N, 120.8922°E)
Time: 04:46:49
(UTC+00:00)

Resurs 1-3 - Pass Details

Date: 14 January 2026
Orbit: 613 x 615 km, 97.7° (Epoch: 7 February)

Event Time Altitude Azimuth Distance (km) Brightness Sun altitude
Rises 10:38:16 0° 166° (SSE) 2,872 7.1 -12.6°
Reaches altitude 10° 10:40:27 10° 166° (SSE) 1,968 6.2 -13.0°
Maximum altitude 10:44:43 82° 79° (E) 624 3.4 -14.0°
Drops below altitude 10° 10:49:01 10° 351° (N) 1,970 6.0 -15.0°
Sets 10:51:11 0° 350° (N) 2,875 6.9 -15.5°
